Location: Taukkyan
(23.1052°N, 94.0030°E)
Time: 10:42:43
(UTC+00:00)

ARIANE 5 R/B - Pass Details

Date: 06 July 2020
Orbit: 749 x 794 km, 98.6° (Epoch: 14 August)

Event Time Altitude Azimuth Distance (km) Brightness Sun altitude
Rises 21:02:19 0° 357° (N) 3,221 6.3 -24.5°
Reaches altitude 10° 21:04:50 10° 347° (NNW) 2,300 5.3 -24.0°
Enters shadow 21:08:45 30° 297° (WNW) 1,362 3.6 -23.3°
